| time (UTC) | temp F | wind direction | speed knots | gust knots | rain 1hr in | rain 24hr in | rain mn in | humidity % | barometer mb |
| 20260906123948 | 72 | 245 | 0.0 | 3.5 | 0.00 | 0.00 | 0.00 | 94 | 1014.4 |
| 20260906122948 | 71 | 245 | 0.0 | 0.9 | 0.00 | 0.00 | 0.00 | 94 | 1014.3 |
| 20260906121947 | 71 | 245 | 0.0 | 0.9 | 0.00 | 0.00 | 0.00 | 94 | 1014.0 |
| 20260906120948 | 71 | 245 | 0.0 | 2.6 | 0.00 | 0.00 | 0.00 | 94 | 1013.9 |
| 20260906115947 | 71 | 245 | 0.0 | 2.6 | 0.00 | 0.00 | 0.00 | 94 | 1013.7 |
| 20260906114948 | 71 | 245 | 0.0 | 3.5 | 0.00 | 0.00 | 0.00 | 94 | 1013.7 |
| 20260906113947 | 71 | 246 | 0.9 | 3.5 | 0.00 | 0.00 | 0.00 | 93 | 1013.3 |
| 20260906112947 | 71 | 246 | 0.0 | 5.2 | 0.00 | 0.00 | 0.00 | 93 | 1013.4 |
| 20260906111947 | 71 | 246 | 0.0 | 2.6 | 0.00 | 0.00 | 0.00 | 92 | 1013.2 |
| 20260906105947 | 71 | 246 | 1.7 | 4.3 | 0.00 | 0.00 | 0.00 | 92 | 1012.8 |
| 20260906104947 | 72 | 246 | 0.0 | 4.3 | 0.00 | 0.00 | 0.00 | 91 | 1012.8 |
| 20260906103947 | 72 | 245 | 0.9 | 5.2 | 0.00 | 0.00 | 0.00 | 91 | 1012.7 |
| 20260906102947 | 72 | 244 | 0.0 | 4.3 | 0.00 | 0.00 | 0.00 | 91 | 1012.6 |
| 20260906101947 | 72 | 244 | 0.0 | 1.7 | 0.00 | 0.00 | 0.00 | 91 | 1012.6 |
| 20260906100946 | 73 | 244 | 0.9 | 2.6 | 0.00 | 0.00 | 0.00 | 90 | 1012.4 |
| 20260906095946 | 73 | 244 | 0.0 | 0.0 | 0.00 | 0.00 | 0.00 | 90 | 1012.4 |
| 20260906093946 | 74 | 244 | 0.0 | 1.7 | 0.00 | 0.00 | 0.00 | 89 | 1012.3 |
| 20260906092946 | 74 | 244 | 0.0 | 1.7 | 0.00 | 0.00 | 0.00 | 89 | 1012.2 |
| 20260906091946 | 74 | 244 | 0.0 | 2.6 | 0.00 | 0.00 | 0.00 | 88 | 1012.2 |
| 20260906090946 | 75 | 244 | 0.0 | 2.6 | 0.00 | 0.00 | 0.00 | 88 | 1012.0 |
| 20260906090016 | 75 | 244 | 2.6 | 4.3 | 0.00 | 0.00 | 0.00 | 87 | 1012.0 |
| 20260906084947 | 75 | 244 | 0.0 | 2.6 | 0.00 | 0.00 | 0.00 | 87 | 1012.0 |
| 20260906083946 | 76 | 244 | 0.0 | 4.3 | 0.00 | 0.00 | 0.00 | 86 | 1012.1 |
| 20260906082945 | 76 | 243 | 0.0 | 0.0 | 0.00 | 0.00 | 0.00 | 85 | 1012.1 |
| 20260906081946 | 76 | 243 | 0.0 | 0.0 | 0.00 | 0.00 | 0.00 | 85 | 1012.2 |
| 20260906080945 | 77 | 243 | 0.0 | 0.0 | 0.00 | 0.00 | 0.00 | 84 | 1012.2 |
| 20260906080015 | 77 | 243 | 0.0 | 0.0 | 0.00 | 0.00 | 0.00 | 84 | 1012.0 |
| 20260906073945 | 77 | 243 | 0.0 | 0.0 | 0.00 | 0.00 | 0.00 | 82 | 1012.0 |
| 20260906072945 | 78 | 243 | 0.0 | 0.0 | 0.00 | 0.00 | 0.00 | 82 | 1012.1 |
| 20260906071945 | 78 | 243 | 0.0 | 0.0 | 0.00 | 0.00 | 0.00 | 82 | 1012.0 |
| 20260906070944 | 79 | 243 | 0.0 | 0.0 | 0.00 | 0.00 | 0.00 | 82 | 1012.1 |
| 20260906070015 | 79 | 243 | 0.0 | 0.0 | 0.00 | 0.00 | 0.00 | 81 | 1012.0 |
| 20260906064945 | 79 | 243 | 0.0 | 0.0 | 0.00 | 0.00 | 0.00 | 81 | 1012.0 |
| 20260906063944 | 80 | 243 | 0.0 | 0.9 | 0.00 | 0.00 | 0.00 | 80 | 1012.2 |
| 20260906062944 | 80 | 243 | 0.0 | 3.5 | 0.00 | 0.00 | 0.00 | 80 | 1012.3 |
| 20260906061944 | 80 | 243 | 0.0 | 0.0 | 0.00 | 0.00 | 0.00 | 79 | 1012.5 |
| 20260906061015 | 81 | 243 | 0.0 | 1.7 | 0.00 | 0.00 | 0.00 | 80 | 1012.5 |
| 20260906060015 | 81 | 243 | 0.0 | 2.6 | 0.00 | 0.00 | 0.00 | 80 | 1012.5 |
| 20260906055014 | 81 | 243 | 0.0 | 0.0 | 0.00 | 0.00 | 0.00 | 81 | 1012.4 |
| 20260906053944 | 82 | 243 | 0.0 | 1.7 | 0.00 | 0.00 | 0.00 | 80 | 1012.5 |
| 20260906053014 | 82 | 243 | 0.0 | 0.0 | 0.00 | 0.00 | 0.00 | 79 | 1012.5 |
| 20260906052013 | 82 | 243 | 0.0 | 2.6 | 0.00 | 0.00 | 0.00 | 79 | 1012.5 |
| 20260906051015 | 83 | 244 | 0.0 | 3.5 | 0.00 | 0.00 | 0.00 | 79 | 1012.4 |
| 20260906050013 | 83 | 244 | 0.0 | 4.3 | 0.00 | 0.00 | 0.00 | 79 | 1012.2 |
| 20260906045013 | 83 | 248 | 0.0 | 5.2 | 0.00 | 0.00 | 0.00 | 78 | 1012.0 |
| 20260906044013 | 84 | 250 | 0.0 | 4.3 | 0.00 | 0.00 | 0.00 | 78 | 1011.9 |
| 20260906042013 | 84 | 252 | 0.0 | 2.6 | 0.00 | 0.00 | 0.00 | 77 | 1012.0 |
| 20260906041013 | 84 | 252 | 0.0 | 1.7 | 0.00 | 0.00 | 0.00 | 77 | 1011.9 |
| 20260906040014 | 85 | 252 | 0.0 | 0.0 | 0.00 | 0.00 | 0.00 | 76 | 1011.9 |
| 20260906035013 | 85 | 252 | 0.0 | 0.0 | 0.00 | 0.00 | 0.00 | 75 | 1011.6 |
| 20260906034013 | 85 | 252 | 0.0 | 0.0 | 0.00 | 0.00 | 0.00 | 74 | 1011.5 |
| 20260906033012 | 86 | 252 | 0.0 | 0.0 | 0.00 | 0.00 | 0.00 | 73 | 1011.4 |
| 20260906032012 | 86 | 252 | 0.0 | 0.0 | 0.00 | 0.00 | 0.00 | 72 | 1011.3 |
| 20260906031012 | 86 | 252 | 0.0 | 0.0 | 0.00 | 0.00 | 0.00 | 72 | 1011.3 |
| 20260906030012 | 86 | 252 | 0.0 | 0.0 | 0.00 | 0.00 | 0.00 | 71 | 1011.2 |
| 20260906025012 | 87 | 252 | 0.0 | 0.0 | 0.00 | 0.00 | 0.00 | 70 | 1011.1 |
| 20260906024012 | 87 | 252 | 0.0 | 0.0 | 0.00 | 0.00 | 0.00 | 69 | 1011.2 |
| 20260906023012 | 87 | 252 | 0.0 | 0.0 | 0.00 | 0.00 | 0.00 | 69 | 1011.1 |
| 20260906022012 | 87 | 252 | 0.0 | 0.0 | 0.00 | 0.00 | 0.00 | 68 | 1010.9 |
| 20260906021012 | 87 | 252 | 0.0 | 0.0 | 0.00 | 0.00 | 0.00 | 68 | 1010.8 |
| 20260906020011 | 87 | 252 | 0.0 | 0.0 | 0.00 | 0.00 | 0.00 | 67 | 1010.5 |
| 20260906015011 | 88 | 252 | 0.0 | 0.0 | 0.00 | 0.00 | 0.00 | 65 | 1010.4 |
| 20260906014012 | 88 | 252 | 0.0 | 0.0 | 0.00 | 0.00 | 0.00 | 64 | 1010.4 |
| 20260906013011 | 89 | 252 | 0.0 | 0.0 | 0.00 | 0.00 | 0.00 | 63 | 1010.3 |
| 20260906011011 | 90 | 252 | 0.0 | 0.0 | 0.00 | 0.00 | 0.00 | 61 | 1010.1 |
| 20260906010011 | 90 | 252 | 0.0 | 0.0 | 0.00 | 0.00 | 0.00 | 61 | 1009.8 |
| 20260906003012 | 91 | 252 | 0.0 | 0.0 | 0.00 | 0.00 | 0.00 | 58 | 1009.7 |
| 20260906002011 | 92 | 252 | 0.0 | 0.0 | 0.00 | 0.00 | 0.00 | 57 | 1009.8 |
| 20260906000010 | 93 | 252 | 0.0 | 0.0 | 0.00 | 0.00 | 0.00 | 55 | 1009.8 |
| 20260905235010 | 94 | 252 | 0.0 | 0.0 | 0.00 | 0.00 | 0.00 | 54 | 1009.9 |
| 20260905234011 | 94 | 252 | 0.0 | 0.0 | 0.00 | 0.00 | 0.00 | 53 | 1009.6 |
| 20260905233010 | 95 | 252 | 0.0 | 0.0 | 0.00 | 0.00 | 0.00 | 52 | 1009.6 |
| 20260905232010 | 95 | 252 | 0.0 | 2.6 | 0.00 | 0.00 | 0.00 | 51 | 1009.5 |
| 20260905231010 | 96 | 252 | 0.0 | 1.7 | 0.00 | 0.00 | 0.00 | 51 | 1009.5 |
| 20260905225009 | 96 | 252 | 0.0 | 3.5 | 0.00 | 0.00 | 0.00 | 49 | 1009.4 |
| 20260905223009 | 97 | 252 | 0.0 | 4.3 | 0.00 | 0.00 | 0.00 | 47 | 1009.5 |
| 20260905222010 | 98 | 252 | 4.3 | 4.3 | 0.00 | 0.00 | 0.00 | 46 | 1009.5 |
| 20260905220009 | 99 | 251 | 1.7 | 4.3 | 0.00 | 0.00 | 0.00 | 47 | 1009.4 |
| 20260905215009 | 100 | 251 | 0.9 | 4.3 | 0.00 | 0.00 | 0.00 | 43 | 1009.2 |
| 20260905214009 | 101 | 249 | 0.9 | 4.3 | 0.00 | 0.00 | 0.00 | 41 | 1009.3 |
| 20260905213009 | 101 | 249 | 1.7 | 4.3 | 0.00 | 0.00 | 0.00 | 41 | 1009.2 |
| 20260905212009 | 101 | 249 | 0.0 | 2.6 | 0.00 | 0.00 | 0.00 | 41 | 1009.4 |
| 20260905211008 | 100 | 249 | 0.9 | 5.2 | 0.00 | 0.00 | 0.00 | 41 | 1009.4 |
| 20260905210009 | 100 | 248 | 0.9 | 6.1 | 0.00 | 0.00 | 0.00 | 42 | 1009.6 |
| 20260905203008 | 102 | 242 | 0.9 | 3.5 | 0.00 | 0.00 | 0.00 | 41 | 1010.0 |
| 20260905202009 | 101 | 242 | 0.9 | 6.1 | 0.00 | 0.00 | 0.00 | 40 | 1010.0 |
| 20260905201008 | 102 | 241 | 2.6 | 5.2 | 0.00 | 0.00 | 0.00 | 39 | 1010.3 |
| 20260905195007 | 102 | 237 | 0.9 | 3.5 | 0.00 | 0.00 | 0.00 | 40 | 1010.3 |
| 20260905194008 | 102 | 237 | 3.5 | 7.8 | 0.00 | 0.00 | 0.00 | 40 | 1010.4 |
| 20260905193009 | 102 | 238 | 2.6 | 4.3 | 0.00 | 0.00 | 0.00 | 40 | 1010.5 |
| 20260905192008 | 102 | 237 | 2.6 | 6.1 | 0.00 | 0.00 | 0.00 | 41 | 1010.7 |
| 20260905190008 | 101 | 236 | 0.0 | 5.2 | 0.00 | 0.00 | 0.00 | 41 | 1011.0 |
| 20260905185007 | 102 | 236 | 0.9 | 3.5 | 0.00 | 0.00 | 0.00 | 43 | 1011.0 |
| 20260905184007 | 101 | 236 | 1.7 | 2.6 | 0.00 | 0.00 | 0.00 | 43 | 1011.3 |
| 20260905182007 | 99 | 236 | 0.9 | 4.3 | 0.00 | 0.00 | 0.00 | 46 | 1011.4 |
| 20260905181006 | 99 | 236 | 0.9 | 3.5 | 0.00 | 0.00 | 0.00 | 48 | 1011.6 |
| 20260905180007 | 98 | 236 | 0.0 | 0.0 | 0.00 | 0.00 | 0.00 | 49 | 1011.6 |
| 20260905174006 | 98 | 236 | 0.0 | 0.0 | 0.00 | 0.00 | 0.00 | 49 | 1011.8 |
| 20260905173006 | 97 | 236 | 0.0 | 0.9 | 0.00 | 0.00 | 0.00 | 48 | 1011.8 |
| 20260905172006 | 97 | 236 | 0.0 | 1.7 | 0.00 | 0.00 | 0.00 | 51 | 1011.9 |
| 20260905170006 | 98 | 236 | 0.0 | 0.0 | 0.00 | 0.00 | 0.00 | 50 | 1012.0 |
| 20260905165007 | 96 | 236 | 0.0 | 2.6 | 0.00 | 0.00 | 0.00 | 52 | 1012.1 |
| 20260905164006 | 97 | 236 | 1.7 | 1.7 | 0.00 | 0.00 | 0.00 | 54 | 1012.4 |
| 20260905163005 | 95 | 236 | 0.0 | 3.5 | 0.00 | 0.00 | 0.00 | 54 | 1012.3 |
| 20260905161005 | 94 | 236 | 0.0 | 1.7 | 0.00 | 0.00 | 0.00 | 57 | 1012.4 |
| 20260905160006 | 94 | 236 | 1.7 | 3.5 | 0.00 | 0.00 | 0.00 | 54 | 1012.5 |
| 20260905154005 | 92 | 236 | 0.0 | 2.6 | 0.00 | 0.00 | 0.00 | 59 | 1012.7 |
| 20260905153005 | 92 | 236 | 0.0 | 2.6 | 0.00 | 0.00 | 0.00 | 57 | 1012.7 |
| 20260905152005 | 92 | 236 | 0.0 | 0.9 | 0.00 | 0.00 | 0.00 | 57 | 1012.7 |
| 20260905151005 | 90 | 236 | 0.0 | 1.7 | 0.00 | 0.00 | 0.00 | 60 | 1012.7 |
| 20260905150006 | 91 | 236 | 0.0 | 0.0 | 0.00 | 0.00 | 0.00 | 61 | 1012.5 |
| 20260905145004 | 91 | 236 | 0.0 | 0.0 | 0.00 | 0.00 | 0.00 | 60 | 1012.5 |
| 20260905144004 | 89 | 236 | 0.0 | 3.5 | 0.00 | 0.00 | 0.00 | 64 | 1012.6 |
| 20260905143005 | 89 | 236 | 0.0 | 4.3 | 0.00 | 0.00 | 0.00 | 63 | 1012.5 |
| 20260905142004 | 88 | 236 | 0.0 | 1.7 | 0.00 | 0.00 | 0.00 | 66 | 1012.5 |
| 20260905141004 | 87 | 236 | 0.0 | 1.7 | 0.00 | 0.00 | 0.00 | 65 | 1012.6 |
| 20260905140005 | 87 | 236 | 0.0 | 2.6 | 0.00 | 0.00 | 0.00 | 67 | 1012.6 |
| 20260905135004 | 86 | 236 | 0.0 | 0.0 | 0.00 | 0.00 | 0.00 | 70 | 1012.6 |
| 20260905133004 | 84 | 236 | 0.0 | 0.0 | 0.00 | 0.00 | 0.00 | 74 | 1012.7 |
| 20260905131003 | 82 | 236 | 0.0 | 0.0 | 0.00 | 0.00 | 0.00 | 76 | 1012.7 |
| 20260905125003 | 79 | 236 | 0.0 | 0.0 | 0.00 | 0.00 | 0.00 | 82 | 1012.4 |